Flag for U.S.A. Weather past 2 weeks in Waterbury, Connecticut, U.S.A.

Now
16 °F

Clear.


Feels Like: 10 °F
Forecast: 5 / 27 °F
Wind: 3 mph from North

Location: Oxford

Current Time: Feb 28, 2015 at 10:47:28 PM

Latest Report: Feb 28, 2015 at 10:15 PM


Visibility: 10 mi

Pressure: 30.70 "Hg

Humidity: 34%

Dew point: -8 °F

Location of WaterburyLocation

Historic Weather in Waterbury — Graph

°F

Waterbury temperature yesterday

Maximum temperature yesterday: 23 °F (at 2:52 PM)
Minimum temperature yesterday: 7 °F (at 6:52 AM)
Average temperature yesterday: 14 °F

Past Weeks' High & Low Weather Summary

 TemperatureHumidityPressure
High41 °F (Feb 22, 2:50 PM)100% (Feb 14, 8:50 AM)30.74 "Hg (Feb 14, 8:50 AM)
Low-8 °F (Feb 24, 3:55 AM)24% (Feb 16, 1:50 PM)29.36 "Hg (Feb 15, 1:35 AM)
Average13 °F51%30.03 "Hg
* Reported Feb 13 9:15 PM — Feb 28 9:15 PM, Waterbury, Weather by CustomWeather, © 2015

Note: Actual official high and low records may vary slightly from our data, if they occured in-between our weather recording intervals... More about our weather records

Advertising

Waterbury weather history for previous 24 hours

 ConditionsComfort  
Time TempWeatherWind HumidityBarometerVisibility
9:15 PM
Sat, Feb 28
19 °FClear.3 mph32%30.70 "Hg10 mi
8:50 PM19 °FClear.No wind32%30.70 "Hg10 mi
7:50 PM21 °FClear.No wind32%30.69 "Hg10 mi
6:50 PM21 °FClear.No wind35%30.69 "Hg10 mi
5:50 PM25 °FClear.No wind30%30.69 "Hg10 mi
4:50 PM27 °FSunny.No wind31%30.68 "Hg10 mi
3:45 PM27 °FSunny.6 mph33%30.68 "Hg10 mi
2:48 PM25 °FSunny.8 mph33%30.69 "Hg10 mi
1:48 PM25 °FSunny.6 mph33%30.70 "Hg10 mi
12:48 PM21 °FSunny.6 mph38%30.73 "Hg10 mi
11:50 AM21 °FSunny.6 mph38%30.74 "Hg10 mi
10:52 AM10 °FPassing clouds.9 mph56%30.74 "Hg10 mi
9:52 AM10 °FSunny.12 mph47%30.74 "Hg10 mi
8:52 AM10 °FSunny.10 mph47%30.74 "Hg10 mi
7:52 AM3 °FSunny.6 mph55%30.71 "Hg10 mi
6:52 AM3 °FSunny.5 mph55%30.68 "Hg10 mi
5:52 AM3 °FClear.5 mph50%30.65 "Hg10 mi
5:35 AM3 °FClear.8 mph55%30.64 "Hg10 mi
5:15 AM1 °FClear.9 mph50%30.63 "Hg10 mi
4:55 AM5 °FClear.6 mph51%30.63 "Hg10 mi
4:35 AM5 °FClear.6 mph51%30.62 "Hg10 mi
4:15 AM3 °FClear.5 mph55%30.62 "Hg10 mi
3:55 AM3 °FClear.7 mph50%30.61 "Hg10 mi
3:35 AM7 °FClear.9 mph47%30.59 "Hg10 mi
3:15 AM7 °FClear.9 mph47%30.58 "Hg10 mi
2:55 AM5 °FClear.12 mph46%30.58 "Hg10 mi
2:35 AM3 °FClear.9 mph46%30.58 "Hg10 mi
2:15 AM3 °FClear.7 mph50%30.58 "Hg10 mi
1:55 AM3 °FClear.5 mph46%30.58 "Hg10 mi
1:35 AM9 °FClear.6 mph47%30.58 "Hg10 mi
1:15 AM9 °FClear.7 mph47%30.57 "Hg10 mi
12:55 AM10 °FClear.3 mph47%30.57 "Hg10 mi
12:35 AM10 °FClear.9 mph44%30.56 "Hg10 mi
12:15 AM10 °FClear.13 mph44%30.55 "Hg10 mi
11:55 PM
Fri, Feb 27
10 °FClear.9 mph44%30.55 "Hg10 mi
11:35 PM12 °FClear.3 mph44%30.54 "Hg10 mi
11:15 PM12 °FClear.3 mph44%30.54 "Hg10 mi
10:15 PM14 °FClear.5 mph44%30.52 "Hg10 mi
Weather by CustomWeather, © 2015

See weather overviewHow to use our weather pages